Olivia, MN

2:41 PM CDT on May 26, 2018 (GMT -0500)
Olivia Regional

Weather History for KOVL - January, 2013

Change the Weather History Date:

Tuesday, January 15, 2013

  Actual Average (KRWF) Record (KRWF)
Temperature  
Mean Temperature 16 °F -  
Max Temperature 28 °F 21 °F 69 °F (1999)
Min Temperature 3 °F 3 °F -28 °F (1972)
Degree Days  
Heating Degree Days 50    
Moisture  
Dew Point 10 °F    
Average Humidity 77    
Maximum Humidity 85    
Minimum Humidity 63    
Precipitation  
Precipitation 0.00 in - - ()
Sea Level Pressure  
Sea Level Pressure 30.06 in    
Wind  
Wind Speed 8 mph (SSW)    
Max Wind Speed 17 mph    
Max Gust Speed 23 mph    
Visibility 10 miles    
Events      
Averages and records for this station are not official NWS values.
T = Trace of Precipitation, MM = Missing Value Source: NWS Daily Summary

Daily Weather History Graph

Daily Weather History Graph

Search for Another Location

Airport or City:

Astronomy

Jan. 15, 2013 Rise Set
Actual Time 7:53 AM CST 5:05 PM CST
Civil Twilight 7:21 AM CST 5:38 PM CST
Nautical Twilight 6:45 AM CST 6:14 PM CST
Astronomical Twilight 6:10 AM CST 6:49 PM CST
Moon 9:47 AM CST (1/15) 10:11 PM CST (1/15)
Length of Visible Light 10h 17m
Length of Day
9h 11m
Waxing Crescent, 19% of the Moon is Illuminated
Jan 15
Waxing Crescent
Jan 18
First Quarter
Jan 26
Full
Feb 3
Last Quarter
Feb 10
New

Hourly Weather History & Observations

Time (CST) Temp. Windchill Dew Point Humidity Pressure Visibility Wind Dir Wind Speed Gust Speed Precip Events Conditions
12:11 AM 6.8 °F -5.9 °F 3.2 °F 85% 30.23 in 10.0 mi SSW 8.1 mph - N/A   Clear
12:31 AM 8.6 °F -2.6 °F 3.2 °F 79% 30.23 in 10.0 mi SSW 6.9 mph - N/A   Clear
12:51 AM 5.0 °F -6.9 °F 1.4 °F 85% 30.23 in 10.0 mi SSW 6.9 mph - N/A   Clear
1:11 AM 5.0 °F -8.1 °F 1.4 °F 85% 30.23 in 10.0 mi SSW 8.1 mph - N/A   Clear
1:31 AM 8.6 °F -2.6 °F 3.2 °F 79% 30.23 in 10.0 mi SSW 6.9 mph - N/A   Clear
2:11 AM 5.0 °F -6.9 °F 1.4 °F 85% 30.22 in 10.0 mi SW 6.9 mph - N/A   Clear
2:31 AM 5.0 °F -6.9 °F 1.4 °F 85% 30.22 in 10.0 mi SW 6.9 mph - N/A   Clear
2:51 AM 8.6 °F -1.3 °F 3.2 °F 79% 30.22 in 10.0 mi SSW 5.8 mph - N/A   Clear
3:11 AM 6.8 °F - 3.2 °F 85% 30.22 in 10.0 mi Calm Calm - N/A   Clear
3:30 AM 8.6 °F 2.0 °F 5.0 °F 85% 30.21 in 10.0 mi South 3.5 mph - N/A   Clear
3:51 AM 5.0 °F - 1.4 °F 85% 30.21 in 10.0 mi Calm Calm - N/A   Clear
4:11 AM 8.6 °F - 3.2 °F 79% 30.21 in 10.0 mi Calm Calm - N/A   Clear
4:51 AM 5.0 °F -4.1 °F 1.4 °F 85% 30.19 in 10.0 mi South 4.6 mph - N/A   Clear
5:11 AM 6.8 °F -0.1 °F 3.2 °F 85% 30.18 in 10.0 mi SSE 3.5 mph - N/A   Clear
5:31 AM 6.8 °F -0.1 °F 3.2 °F 85% 30.18 in 10.0 mi SSE 3.5 mph - N/A   Clear
6:10 AM 3.2 °F -7.8 °F -0.4 °F 85% 30.17 in 10.0 mi SSE 5.8 mph - N/A   Clear
6:31 AM 5.0 °F -5.6 °F 1.4 °F 85% 30.17 in 10.0 mi SSE 5.8 mph - N/A   Clear
6:51 AM 5.0 °F -6.9 °F 1.4 °F 85% 30.17 in 10.0 mi SSE 6.9 mph - N/A   Clear
7:11 AM 5.0 °F -4.1 °F 1.4 °F 85% 30.17 in 10.0 mi SSE 4.6 mph - N/A   Clear
7:31 AM 5.0 °F -5.6 °F 1.4 °F 85% 30.18 in 10.0 mi SSE 5.8 mph - N/A   Clear
7:51 AM 5.0 °F -6.9 °F 1.4 °F 85% 30.17 in 10.0 mi SSE 6.9 mph - N/A   Clear
8:11 AM 5.0 °F -6.9 °F 1.4 °F 85% 30.17 in 10.0 mi SSE 6.9 mph - N/A   Clear
8:31 AM 8.6 °F -2.6 °F 3.2 °F 79% 30.17 in 10.0 mi SSE 6.9 mph - N/A   Clear
8:50 AM 8.6 °F -1.3 °F 3.2 °F 79% 30.16 in 10.0 mi SSE 5.8 mph - N/A   Clear
9:11 AM 10.4 °F -1.5 °F 6.8 °F 85% 30.16 in 10.0 mi SSE 8.1 mph - N/A   Clear
9:31 AM 10.4 °F -2.4 °F 6.8 °F 85% 30.16 in 10.0 mi South 9.2 mph - N/A   Clear
9:51 AM 12.2 °F -0.2 °F 6.8 °F 79% 30.16 in 10.0 mi South 9.2 mph - N/A   Clear
10:10 AM 12.2 °F 0.7 °F 8.6 °F 85% 30.15 in 10.0 mi South 8.1 mph - N/A   Clear
10:31 AM 14.0 °F 2.9 °F 8.6 °F 79% 30.15 in 10.0 mi South 8.1 mph - N/A   Clear
10:51 AM 15.8 °F 6.1 °F 10.4 °F 79% 30.14 in 10.0 mi SSW 6.9 mph - N/A   Clear
11:10 AM 15.8 °F 4.2 °F 10.4 °F 79% 30.13 in 10.0 mi SSW 9.2 mph - N/A   Clear
11:31 AM 17.6 °F 7.3 °F 12.2 °F 79% 30.12 in 10.0 mi SSW 8.1 mph - N/A   Clear
11:51 AM 19.4 °F 7.9 °F 12.2 °F 74% 30.11 in 10.0 mi SSW 10.4 mph - N/A   Clear
12:10 PM 21.2 °F 10.1 °F 14.0 °F 74% 30.09 in 10.0 mi SSW 10.4 mph - N/A   Clear
12:31 PM 21.2 °F 10.1 °F 15.8 °F 80% 30.08 in 10.0 mi SSW 10.4 mph - N/A   Clear
12:51 PM 23.0 °F 12.4 °F 15.8 °F 74% 30.06 in 10.0 mi SW 10.4 mph - N/A   Clear
1:31 PM 26.6 °F 16.2 °F 17.6 °F 69% 30.05 in 10.0 mi SSW 11.5 mph - N/A   Clear
1:51 PM 26.6 °F 16.2 °F 19.4 °F 74% 30.04 in 10.0 mi SSW 11.5 mph - N/A   Clear
2:10 PM 28.4 °F 17.5 °F 19.4 °F 69% 30.02 in 10.0 mi SSW 13.8 mph - N/A   Clear
2:31 PM 28.4 °F 17.5 °F 19.4 °F 69% 30.02 in 10.0 mi SSW 13.8 mph - N/A   Clear
3:10 PM 28.4 °F 17.5 °F 19.4 °F 69% 30.03 in 10.0 mi SSW 13.8 mph - N/A   Clear
3:31 PM 28.4 °F 18.0 °F 19.4 °F 69% 30.02 in 10.0 mi SSW 12.7 mph - N/A   Clear
3:51 PM 26.6 °F 16.2 °F 19.4 °F 74% 30.02 in 10.0 mi SSW 11.5 mph - N/A   Clear
4:11 PM 26.6 °F 16.2 °F 17.6 °F 69% 30.02 in 10.0 mi SSW 11.5 mph - N/A   Clear
4:31 PM 23.0 °F 12.4 °F 15.8 °F 74% 30.01 in 10.0 mi SW 10.4 mph - N/A   Clear
4:51 PM 21.2 °F 11.7 °F 14.0 °F 74% 30.01 in 10.0 mi SSW 8.1 mph - N/A   Clear
5:11 PM 21.2 °F 10.1 °F 14.0 °F 74% 30.01 in 10.0 mi SSW 10.4 mph - N/A   Clear
5:31 PM 21.2 °F 10.1 °F 14.0 °F 74% 30.00 in 10.0 mi SSW 10.4 mph - N/A   Clear
5:51 PM 23.0 °F 13.1 °F 15.8 °F 74% 29.98 in 10.0 mi South 9.2 mph - N/A   Clear
6:11 PM 21.2 °F 10.9 °F 14.0 °F 74% 29.98 in 10.0 mi SSW 9.2 mph - N/A   Clear
6:30 PM 21.2 °F 10.1 °F 14.0 °F 74% 29.97 in 10.0 mi SSW 10.4 mph - N/A   Clear
6:50 PM 21.2 °F 9.5 °F 14.0 °F 74% 29.96 in 10.0 mi SSW 11.5 mph - N/A   Clear
7:11 PM 21.2 °F 8.3 °F 14.0 °F 74% 29.95 in 10.0 mi SSW 13.8 mph - N/A   Clear
7:31 PM 23.0 °F 10.6 °F 14.0 °F 68% 29.93 in 10.0 mi SSW 13.8 mph - N/A   Clear
7:51 PM 21.2 °F 8.9 °F 12.2 °F 68% 29.92 in 10.0 mi SSW 12.7 mph - N/A   Clear
8:11 PM 23.0 °F 11.1 °F 12.2 °F 63% 29.90 in 10.0 mi South 12.7 mph - N/A   Clear
8:31 PM 21.2 °F 10.1 °F 12.2 °F 68% 29.89 in 10.0 mi South 10.4 mph - N/A   Clear
8:51 PM 21.2 °F 8.9 °F 14.0 °F 74% 29.88 in 10.0 mi South 12.7 mph 18.4 mph N/A   Clear
9:11 PM 21.2 °F 9.5 °F 12.2 °F 68% 29.87 in 10.0 mi South 11.5 mph - N/A   Clear
9:31 PM 21.2 °F 8.9 °F 12.2 °F 68% 29.85 in 10.0 mi South 12.7 mph - N/A   Clear
9:51 PM 21.2 °F 8.9 °F 14.0 °F 74% 29.85 in 10.0 mi SSW 12.7 mph - N/A   Clear
10:11 PM 21.2 °F 8.3 °F 12.2 °F 68% 29.84 in 10.0 mi SSW 13.8 mph - N/A   Clear
10:30 PM 21.2 °F 7.8 °F 14.0 °F 74% 29.82 in 10.0 mi SSW 15.0 mph - N/A   Mostly Cloudy
10:51 PM 23.0 °F 9.6 °F 15.8 °F 74% 29.80 in 10.0 mi SSW 16.1 mph - N/A   Overcast
11:11 PM 23.0 °F 9.2 °F 15.8 °F 74% 29.78 in 10.0 mi SSW 17.3 mph 21.9 mph N/A   Overcast
11:30 PM 23.0 °F 9.6 °F 17.6 °F 80% 29.77 in 10.0 mi SSW 16.1 mph - N/A   Overcast
11:51 PM 24.8 °F 11.9 °F 17.6 °F 74% 29.76 in 10.0 mi SSW 16.1 mph 23.0 mph N/A   Overcast